DW6860 Weather Reports


Display with metric or nautical units.
time (UTC)temp
F
wind
direction
speed
MPH
gust
MPH
rain 1hr
in
rain 24hr
in
rain mn
in
humidity
%
barometer
mb
20260905184018 64 332 0.0 1.0 0.00 0.00 0.00 68 1024.9
20260905183508 64 332 0.0 1.0 0.00 0.00 0.00 68 1024.9
20260905183014 64 332 0.0 3.0 0.00 0.00 0.00 68 1024.8
20260905182512 64 303 1.0 3.0 0.00 0.00 0.00 68 1024.8
20260905182006 64 355 1.0 3.0 0.00 0.00 0.00 67 1024.9
20260905181503 64 326 1.0 4.0 0.00 0.00 0.00 67 1024.8
20260905181006 64 348 1.0 7.0 0.00 0.00 0.00 67 1024.8
20260905180501 65 15 1.0 7.0 0.00 0.00 0.00 67 1024.7
20260905180414 65 252 2.0 6.0 0.00 0.00 0.00 66 1024.7
20260905180409 65 250 2.0 7.0 0.00 0.00 0.00 66 1024.7
20260905174952 65 18 1.0 7.0 0.00 0.00 0.00 66 1024.5
20260905174452 65 345 2.0 6.0 0.00 0.00 0.00 66 1024.5
20260905173948 65 0 2.0 6.0 0.00 0.00 0.00 65 1024.6
20260905173447 65 299 1.0 3.0 0.00 0.00 0.00 65 1024.7
20260905173027 66 336 2.0 5.0 0.00 0.00 0.00 65 1024.5
20260905172604 66 330 2.0 5.0 0.00 0.00 0.00 64 1024.7
20260905171947 66 268 2.0 8.0 0.00 0.00 0.00 65 1024.7
20260905171447 66 350 2.0 8.0 0.00 0.00 0.00 64 1024.6
20260905171122 66 22 2.0 6.0 0.00 0.00 0.00 64 1024.5
20260905171035 66 267 2.0 6.0 0.00 0.00 0.00 64 1024.5
20260905165937 66 333 3.0 8.0 0.00 0.00 0.00 65 1024.4
20260905165433 66 288 3.0 10.0 0.00 0.00 0.00 64 1024.3
20260905164932 66 249 3.0 10.0 0.00 0.00 0.00 64 1024.2
20260905164431 66 329 2.0 6.0 0.00 0.00 0.00 64 1024.2
20260905164324 66 311 2.0 9.0 0.00 0.00 0.00 64 1024.0
20260905163433 67 348 3.0 10.0 0.00 0.00 0.00 64 1024.0
20260905162933 67 5 3.0 10.0 0.00 0.00 0.00 64 1024.1
20260905162431 67 228 3.0 10.0 0.00 0.00 0.00 63 1024.0
20260905162309 67 298 4.0 10.0 0.00 0.00 0.00 63 1023.9
20260905161431 67 257 3.0 7.0 0.00 0.00 0.00 62 1024.0
20260905160931 67 0 3.0 9.0 0.00 0.00 0.00 63 1023.9
20260905160431 67 318 2.0 9.0 0.00 0.00 0.00 63 1023.9
20260905155931 67 317 2.0 10.0 0.00 0.00 0.00 63 1023.8
20260905155430 67 345 4.0 10.0 0.00 0.00 0.00 62 1023.7
20260905154932 67 341 4.0 13.0 0.00 0.00 0.00 62 1023.7
20260905154430 67 355 4.0 13.0 0.00 0.00 0.00 62 1023.6
20260905153933 67 0 3.0 12.0 0.00 0.00 0.00 62 1023.6
20260905153749 68 301 3.0 11.0 0.00 0.00 0.00 61 1023.6
20260905152935 68 348 3.0 11.0 0.00 0.00 0.00 61 1023.6
20260905152431 67 332 4.0 10.0 0.00 0.00 0.00 61 1023.5
20260905151929 67 323 4.0 12.0 0.00 0.00 0.00 60 1023.5
20260905151430 68 178 4.0 12.0 0.00 0.00 0.00 60 1023.5
20260905150932 68 295 4.0 12.0 0.00 0.00 0.00 61 1023.5
20260905150431 68 314 5.0 12.0 0.00 0.00 0.00 61 1023.5
20260905145931 68 315 4.0 12.0 0.00 0.00 0.00 60 1023.5
20260905145818 68 323 3.0 12.0 0.00 0.00 0.00 62 1023.5
20260905144930 68 322 4.0 11.0 0.00 0.00 0.00 61 1023.5
20260905144427 69 0 4.0 11.0 0.00 0.00 0.00 61 1023.5
20260905143923 69 192 4.0 11.0 0.00 0.00 0.00 61 1023.3
20260905143425 70 340 4.0 11.0 0.00 0.00 0.00 58 1023.3
20260905142923 70 213 5.0 13.0 0.00 0.00 0.00 59 1023.2
20260905142423 70 355 5.0 13.0 0.00 0.00 0.00 58 1023.2
20260905141921 69 349 5.0 12.0 0.00 0.00 0.00 59 1023.2
20260905141642 69 355 6.0 14.0 0.00 0.00 0.00 59 1023.2
20260905141425 69 355 6.0 14.0 0.00 0.00 0.00 59 1023.2
20260905140917 70 14 6.0 14.0 0.00 0.00 0.00 59 1023.2
20260905140416 71 283 5.0 12.0 0.00 0.00 0.00 58 1023.0
20260905135916 71 315 4.0 13.0 0.00 0.00 0.00 58 1023.1
20260905135415 70 209 4.0 13.0 0.00 0.00 0.00 59 1022.9
20260905134914 70 281 4.0 12.0 0.00 0.00 0.00 60 1022.8
20260905134415 70 204 4.0 12.0 0.00 0.00 0.00 60 1022.7
20260905133916 69 283 4.0 11.0 0.00 0.00 0.00 61 1022.6
20260905133415 69 308 3.0 12.0 0.00 0.00 0.00 61 1022.6
20260905132916 68 265 4.0 12.0 0.00 0.00 0.00 60 1022.6
20260905132419 69 41 5.0 12.0 0.00 0.00 0.00 58 1022.6
20260905131914 69 131 5.0 14.0 0.00 0.00 0.00 57 1022.5
20260905131417 70 300 5.0 14.0 0.00 0.00 0.00 57 1022.6
20260905130912 70 290 4.0 13.0 0.00 0.01 0.00 57 1022.6
20260905130414 69 338 5.0 16.0 0.00 0.01 0.00 58 1022.6
20260905125917 69 319 5.0 16.0 0.00 0.01 0.00 57 1022.6
20260905125414 69 277 6.0 15.0 0.00 0.01 0.00 57 1022.5
20260905124910 70 325 5.0 15.0 0.00 0.01 0.00 57 1022.6
20260905124750 71 276 4.0 13.0 0.00 0.02 0.00 57 1022.4
20260905123911 71 351 4.0 13.0 0.00 0.02 0.00 58 1022.3
20260905123413 70 5 5.0 13.0 0.00 0.02 0.00 57 1022.4
20260905122912 70 297 5.0 15.0 0.00 0.04 0.00 57 1022.3
20260905122415 70 339 5.0 15.0 0.00 0.07 0.00 58 1022.2
20260905121911 71 355 4.0 18.0 0.00 0.07 0.00 58 1022.1
20260905121427 70 342 4.0 18.0 0.00 0.07 0.00 60 1022.1
20260905120913 70 318 5.0 16.0 0.00 0.08 0.00 58 1022.2
20260905120411 71 349 6.0 16.0 0.00 0.08 0.00 58 1022.2
20260905115916 71 344 5.0 12.0 0.00 0.08 0.00 60 1022.2
20260905115411 71 173 4.0 15.0 0.00 0.08 0.00 59 1022.0
20260905114912 71 297 4.0 15.0 0.00 0.08 0.00 61 1021.9
20260905114411 70 237 5.0 12.0 0.00 0.08 0.00 63 1021.9
20260905113910 69 0 5.0 15.0 0.00 0.08 0.00 64 1021.9
20260905113408 68 316 5.0 15.0 0.00 0.08 0.00 63 1021.8
20260905112912 68 229 5.0 11.0 0.00 0.08 0.00 61 1021.8
20260905112409 69 315 5.0 13.0 0.00 0.08 0.00 60 1021.9
20260905111909 69 309 5.0 14.0 0.00 0.08 0.00 60 1021.8
20260905111407 70 17 5.0 14.0 0.00 0.08 0.00 59 1021.5
20260905110912 70 234 5.0 14.0 0.00 0.08 0.00 60 1021.5
20260905110755 69 216 5.0 14.0 0.00 0.08 0.00 60 1021.6
20260905105955 69 321 4.0 12.0 0.00 0.08 0.00 62 1021.5
20260905105411 69 167 5.0 12.0 0.00 0.08 0.00 62 1021.6
20260905104912 69 310 5.0 10.0 0.00 0.08 0.00 60 1021.4
20260905104415 69 265 5.0 13.0 0.00 0.08 0.00 61 1021.4
20260905103915 69 277 5.0 13.0 0.00 0.08 0.00 62 1021.3
20260905103408 68 333 4.0 10.0 0.00 0.08 0.00 64 1021.5
20260905102910 67 232 4.0 10.0 0.00 0.08 0.00 66 1021.4
20260905102409 68 313 4.0 11.0 0.00 0.08 0.00 67 1021.3
20260905101911 68 244 4.0 11.0 0.00 0.08 0.00 68 1021.3
20260905101408 67 259 4.0 11.0 0.00 0.08 0.00 69 1021.2
20260905100904 67 194 4.0 9.0 0.00 0.08 0.00 69 1021.2
20260905100401 67 219 4.0 12.0 0.00 0.08 0.00 69 1021.1
20260905095901 67 285 4.0 12.0 0.00 0.08 0.00 70 1021.0
20260905095401 66 214 4.0 10.0 0.00 0.08 0.00 71 1021.0
20260905094905 66 302 4.0 14.0 0.00 0.08 0.00 70 1021.0
20260905094359 66 31 4.0 14.0 0.00 0.08 0.00 70 1021.0
20260905093857 66 96 5.0 12.0 0.00 0.08 0.00 70 1020.7
20260905093358 67 319 5.0 12.0 0.00 0.08 0.00 71 1020.8
20260905092856 67 5 4.0 16.0 0.00 0.08 0.00 73 1020.8
20260905092359 66 231 4.0 16.0 0.00 0.08 0.00 76 1020.6
20260905091855 65 175 4.0 14.0 0.00 0.08 0.00 76 1020.7
20260905091357 65 260 5.0 14.0 0.00 0.08 0.00 76 1020.5
20260905090858 65 355 4.0 12.0 0.00 0.08 0.00 77 1020.5
20260905090353 65 230 3.0 10.0 0.00 0.08 0.00 78 1020.5
20260905090228 65 227 5.0 14.0 0.00 0.08 0.00 78 1020.5
20260905085358 64 265 5.0 14.0 0.00 0.08 0.00 79 1020.4
20260905084853 64 198 4.0 12.0 0.00 0.08 0.00 80 1020.3
20260905084352 64 238 4.0 12.0 0.00 0.08 0.00 81 1020.3
20260905083852 64 230 4.0 12.0 0.00 0.08 0.00 82 1020.3
20260905083728 64 194 3.0 10.0 0.00 0.08 0.00 82 1020.2
20260905083222 63 153 4.0 9.0 0.00 0.08 0.00 82 1020.0
20260905082736 63 157 5.0 14.0 0.00 0.08 0.00 83 1019.9
20260905081846 63 266 6.0 14.0 0.00 0.08 0.00 83 1019.9
20260905081345 62 211 5.0 12.0 0.00 0.08 0.00 84 1020.0
20260905080851 62 246 5.0 11.0 0.00 0.08 0.00 85 1019.9
20260905080343 62 313 4.0 10.0 0.00 0.08 0.00 86 1019.9
20260905075848 62 232 4.0 10.0 0.00 0.08 0.00 86 1019.8
20260905075343 61 210 3.0 9.0 0.00 0.08 0.00 87 1019.7
20260905074848 61 166 3.0 9.0 0.00 0.08 0.00 87 1019.6
20260905074454 60 257 4.0 10.0 0.00 0.08 0.00 89 1019.7
20260905074450 60 193 4.0 10.0 0.00 0.08 0.00 88 1019.6
20260905074423 61 244 4.0 9.0 0.00 0.08 0.00 88 1019.5
20260905072838 60 210 3.0 9.0 0.00 0.08 0.00 89 1019.5
20260905072340 60 221 4.0 9.0 0.00 0.08 0.00 89 1019.5
20260905071837 59 192 4.0 9.0 0.00 0.08 0.00 89 1019.3
20260905071338 59 193 4.0 9.0 0.00 0.08 0.00 89 1019.3
20260905070843 59 175 3.0 7.0 0.00 0.08 0.00 89 1019.2
20260905070338 58 188 3.0 8.0 0.00 0.08 0.00 90 1019.1
20260905065836 58 206 3.0 8.0 0.00 0.08 0.00 90 1019.1
20260905065334 58 236 3.0 6.0 0.00 0.08 0.00 90 1019.1
20260905064834 58 205 3.0 6.0 0.00 0.08 0.00 90 1019.1
20260905064335 58 192 2.0 5.0 0.00 0.08 0.00 90 1019.0
20260905064114 57 218 2.0 6.0 0.00 0.08 0.00 90 1018.9
20260905064003 57 190 2.0 6.0 0.00 0.08 0.00 90 1019.0
20260905062828 57 209 2.0 5.0 0.00 0.08 0.00 90 1018.8
20260905062325 57 191 2.0 5.0 0.00 0.08 0.00 90 1018.8
20260905061821 57 195 3.0 5.0 0.00 0.08 0.00 90 1018.7
20260905061319 57 207 3.0 5.0 0.00 0.08 0.00 90 1018.7
20260905060817 57 224 3.0 6.0 0.00 0.08 0.00 90 1018.6
20260905060640 56 201 3.0 6.0 0.00 0.08 0.00 90 1018.6
20260905060141 56 194 3.0 6.0 0.00 0.08 0.00 90 1018.6
20260905055309 56 198 2.0 6.0 0.00 0.08 0.00 90 1018.5
20260905055126 56 250 2.0 6.0 0.00 0.08 0.00 90 1018.4
20260905054633 56 227 3.0 7.0 0.00 0.08 0.00 90 1018.3
20260905053812 56 194 2.0 7.0 0.00 0.08 0.00 89 1018.3
20260905053322 55 191 2.0 5.0 0.00 0.08 0.00 89 1018.1
20260905052812 55 199 2.0 4.0 0.00 0.08 0.00 89 1018.1
20260905052629 55 189 2.0 5.0 0.00 0.08 0.00 89 1018.0
20260905051813 55 207 3.0 5.0 0.00 0.08 0.00 89 1017.9
20260905051318 55 241 2.0 5.0 0.00 0.08 0.00 89 1017.9
20260905050813 55 190 2.0 5.0 0.00 0.08 0.00 89 1017.9
20260905050633 55 205 2.0 5.0 0.00 0.08 0.00 89 1017.8
20260905045813 55 187 2.0 5.0 0.00 0.08 0.00 89 1017.7
20260905045306 55 196 2.0 5.0 0.00 0.08 0.00 88 1017.6
20260905044756 55 217 2.0 4.0 0.00 0.08 0.00 88 1017.6
20260905044254 55 217 2.0 4.0 0.00 0.08 0.00 88 1017.5
20260905044049 55 207 1.0 4.0 0.00 0.08 0.00 88 1017.5
20260905043242 55 207 1.0 4.0 0.00 0.08 0.00 88 1017.2
20260905043233 55 207 1.0 4.0 0.00 0.08 0.00 88 1017.4
20260905043222 55 184 1.0 4.0 0.00 0.08 0.00 87 1017.4
20260905042340 55 244 1.0 4.0 0.00 0.08 0.00 88 1017.4
20260905041756 55 184 1.0 3.0 0.00 0.08 0.00 87 1017.3
20260905041301 55 184 1.0 4.0 0.00 0.08 0.00 87 1017.4
20260905040809 55 184 1.0 4.0 0.00 0.08 0.00 87 1017.3
20260905040232 56 184 1.0 3.0 0.00 0.08 0.00 87 1017.2
20260905040052 56 184 1.0 3.0 0.00 0.08 0.00 87 1017.2
20260905035532 56 184 1.0 3.0 0.00 0.08 0.00 87 1017.1
20260905035029 56 184 1.0 3.0 0.00 0.08 0.00 87 1017.2
20260905034529 56 184 1.0 4.0 0.00 0.08 0.00 87 1017.1
20260905033709 56 184 1.0 4.0 0.00 0.08 0.00 86 1017.1
20260905033209 56 184 1.0 3.0 0.00 0.08 0.00 86 1017.1
20260905032710 56 184 1.0 3.0 0.00 0.08 0.00 86 1017.1
20260905032211 56 184 1.0 3.0 0.00 0.08 0.00 86 1017.0
20260905031710 56 184 1.0 4.0 0.00 0.08 0.00 86 1017.0
20260905031213 56 184 1.0 4.0 0.00 0.08 0.00 86 1016.9
20260905030651 56 184 1.0 3.0 0.00 0.08 0.00 86 1016.8
20260905030346 56 184 1.0 3.0 0.00 0.08 0.00 86 1016.7
20260905030306 56 184 1.0 3.0 0.00 0.08 0.00 86 1016.7
20260905025150 57 184 2.0 3.0 0.00 0.08 0.00 86 1016.7
20260905024647 57 184 2.0 4.0 0.00 0.08 0.00 86 1016.7
20260905024141 57 184 2.0 5.0 0.00 0.08 0.00 86 1016.7
20260905023639 57 191 2.0 5.0 0.00 0.08 0.00 85 1016.7
20260905023136 57 207 2.0 4.0 0.00 0.08 0.00 85 1016.7
20260905022637 57 207 2.0 4.0 0.00 0.08 0.00 85 1016.8
20260905022141 57 207 2.0 3.0 0.00 0.08 0.00 85 1016.7
20260905021638 57 207 2.0 4.0 0.00 0.08 0.00 85 1016.7
20260905021136 57 234 2.0 4.0 0.00 0.08 0.00 85 1016.7
20260905020634 57 207 2.0 4.0 0.00 0.08 0.00 85 1016.6
20260905020132 58 207 2.0 4.0 0.00 0.08 0.00 85 1016.7
20260905015633 58 207 2.0 5.0 0.00 0.08 0.00 85 1016.6
20260905015132 58 209 2.0 5.0 0.00 0.08 0.00 84 1016.5
20260905014633 58 209 2.0 5.0 0.00 0.08 0.00 84 1016.5
20260905014132 58 215 2.0 5.0 0.00 0.08 0.00 84 1016.5
20260905013945 58 215 2.0 5.0 0.00 0.08 0.00 84 1016.5
20260905013138 58 186 2.0 5.0 0.00 0.08 0.00 84 1016.5
20260905012630 58 195 2.0 4.0 0.00 0.08 0.00 84 1016.5
20260905012129 58 228 2.0 4.0 0.00 0.08 0.00 83 1016.5
20260905011627 58 228 2.0 4.0 0.00 0.08 0.00 83 1016.5
20260905011125 58 188 2.0 4.0 0.00 0.08 0.00 83 1016.3
20260905010627 58 210 2.0 4.0 0.00 0.08 0.00 83 1016.2
20260905010438 58 222 2.0 4.0 0.00 0.08 0.00 83 1016.2
20260905005625 58 222 2.0 4.0 0.00 0.08 0.00 83 1016.3
20260905005121 58 218 2.0 4.0 0.00 0.08 0.00 83 1016.3
20260905004915 58 211 2.0 5.0 0.00 0.08 0.00 83 1016.3
20260905004109 58 196 2.0 5.0 0.00 0.08 0.00 82 1016.3
20260905003743 58 202 2.0 4.0 0.00 0.08 0.00 82 1016.4
20260905003714 58 202 2.0 4.0 0.00 0.08 0.00 82 1016.3
20260905002923 59 234 2.0 3.0 0.00 0.08 0.00 82 1016.3
20260905002246 59 234 1.0 3.0 0.00 0.08 0.00 82 1016.3
20260905002212 59 234 2.0 3.0 0.00 0.08 0.00 82 1016.3
20260905001108 59 234 1.0 3.0 0.00 0.08 0.00 81 1016.3
20260905000930 59 246 1.0 3.0 0.00 0.08 0.00 81 1016.2
20260905000113 59 231 2.0 3.0 0.00 0.08 0.00 81 1016.3
20260904235610 59 173 1.0 3.0 0.00 0.08 0.00 81 1016.2
20260904235105 60 173 1.0 3.0 0.00 0.08 0.00 81 1016.2
20260904234611 60 173 2.0 5.0 0.00 0.08 0.00 81 1016.2
20260904234105 60 173 2.0 5.0 0.00 0.08 0.00 81 1016.2
20260904233609 60 173 2.0 3.0 0.00 0.08 0.00 80 1016.1
20260904233417 60 173 2.0 3.0 0.00 0.08 0.00 80 1016.2
20260904232610 60 173 1.0 3.0 0.00 0.08 0.00 80 1016.1
20260904232108 61 173 1.0 3.0 0.00 0.08 0.00 80 1016.1
20260904231615 61 173 1.0 3.0 0.00 0.08 0.00 79 1016.1
20260904231415 61 173 1.0 3.0 0.00 0.08 0.00 79 1016.0
20260904230607 61 173 1.0 3.0 0.00 0.08 0.00 79 1016.0
20260904230104 61 173 1.0 3.0 0.00 0.08 0.00 79 1016.0
20260904225609 61 278 1.0 3.0 0.00 0.08 0.00 79 1015.9
20260904225112 61 278 1.0 3.0 0.00 0.08 0.00 79 1016.0
20260904224614 61 278 1.0 4.0 0.00 0.08 0.00 79 1015.9
20260904224242 62 234 1.0 4.0 0.00 0.08 0.00 78 1016.0
20260904224215 62 212 1.0 4.0 0.00 0.08 0.00 78 1016.0
20260904223414 62 311 1.0 4.0 0.00 0.08 0.00 78 1015.9
20260904222548 62 305 2.0 4.0 0.00 0.08 0.00 78 1015.8
20260904222049 62 232 2.0 4.0 0.00 0.08 0.00 78 1015.8
20260904221721 62 202 1.0 6.0 0.00 0.08 0.00 78 1015.8
20260904221647 62 334 2.0 6.0 0.00 0.08 0.00 78 1015.8
20260904220542 62 238 1.0 4.0 0.00 0.08 0.00 78 1015.6
20260904220055 62 209 1.0 4.0 0.00 0.08 0.00 78 1015.7
20260904215537 62 243 1.0 4.0 0.00 0.08 0.08 78 1015.6
20260904215034 63 227 1.0 4.0 0.00 0.08 0.08 77 1015.6
20260904214536 63 259 1.0 3.0 0.00 0.08 0.08 77 1015.6
20260904214038 63 259 1.0 3.0 0.00 0.08 0.08 77 1015.5
20260904213537 63 208 1.0 3.0 0.00 0.08 0.08 77 1015.4
20260904213032 63 232 1.0 3.0 0.00 0.08 0.08 76 1015.4
20260904212531 63 248 1.0 3.0 0.00 0.08 0.08 76 1015.3
20260904212030 64 243 1.0 4.0 0.00 0.08 0.08 76 1015.3
20260904211529 64 233 1.0 4.0 0.00 0.08 0.08 76 1015.2
20260904211032 64 232 1.0 4.0 0.00 0.08 0.08 75 1015.3
20260904210529 64 217 1.0 4.0 0.00 0.08 0.08 75 1015.2
20260904210033 64 298 1.0 4.0 0.00 0.08 0.08 75 1015.1
20260904205533 64 281 1.0 3.0 0.00 0.08 0.08 75 1015.2
20260904205032 64 261 0.0 4.0 0.00 0.08 0.08 75 1015.2
20260904204528 64 286 1.0 4.0 0.00 0.08 0.08 74 1015.0
20260904204025 64 313 1.0 4.0 0.00 0.08 0.08 74 1015.1
20260904203520 64 321 2.0 6.0 0.00 0.08 0.08 74 1015.0
20260904203018 64 273 2.0 6.0 0.00 0.08 0.08 74 1014.9
20260904202518 64 325 2.0 4.0 0.00 0.08 0.08 74 1015.0
20260904202020 65 203 2.0 4.0 0.00 0.08 0.08 73 1014.8
20260904201513 65 267 1.0 4.0 0.00 0.08 0.08 73 1014.7
20260904201017 65 329 1.0 4.0 0.00 0.08 0.08 73 1014.7
20260904200520 65 313 2.0 7.0 0.00 0.08 0.08 72 1014.6
20260904200028 65 305 2.0 7.0 0.00 0.08 0.08 72 1014.6
20260904195503 65 273 2.0 8.0 0.00 0.08 0.08 72 1014.5
20260904195014 65 323 2.0 8.0 0.00 0.08 0.08 71 1014.4
20260904194822 65 286 2.0 4.0 0.00 0.08 0.08 71 1014.5
20260904194328 65 301 2.0 6.0 0.00 0.08 0.08 70 1014.5
20260904194324 67 172 4.0 15.0 0.00 0.08 0.08 72 1013.7
20260904194210 65 322 2.0 5.0 0.00 0.08 0.08 71 1014.5
20260904193951 65 306 2.0 6.0 0.00 0.08 0.08 70 1014.3
20260904193947 65 312 2.0 8.0 0.00 0.08 0.08 70 1014.4
20260904193942 65 331 3.0 8.0 0.00 0.08 0.08 69 1014.2
20260904193927 65 221 2.0 8.0 0.00 0.08 0.08 69 1014.3
20260904193921 65 298 2.0 8.0 0.00 0.08 0.08 69 1014.1
20260904192919 67 192 3.0 8.0 0.00 0.08 0.08 75 1013.4
20260904192914 67 0 3.0 9.0 0.00 0.08 0.08 75 1013.3
20260904192310 65 260 3.0 8.0 0.00 0.08 0.08 69 1014.4
20260904191338 65 279 3.0 9.0 0.00 0.08 0.08 69 1014.3
20260904191151 65 310 3.0 9.0 0.00 0.08 0.08 69 1014.2
20260904190624 66 138 2.0 7.0 0.00 0.08 0.08 68 1014.1
20260904190439 66 239 2.0 7.0 0.00 0.08 0.08 68 1014.1
20260904190256 66 269 2.0 8.0 0.00 0.08 0.08 68 1013.9
20260904190104 66 248 2.0 10.0 0.00 0.08 0.08 68 1013.8
20260904185901 66 183 3.0 10.0 0.00 0.08 0.08 69 1013.9
20260904185717 66 302 3.0 9.0 0.00 0.08 0.08 69 1013.7
20260904185517 66 238 3.0 11.0 0.00 0.08 0.08 69 1013.6
20260904185011 66 269 4.0 13.0 0.00 0.08 0.08 70 1013.7